Voltar ao catálogo

YAOGAN-32 B

AtivoMilitarSSO
NORAD 43643·PAYLOAD·🇨🇳 China

Lançado Oct 9, 2018 de Jiuquan Satellite Launch Center

Loading…

Próximas Passagens (próximas 24 horas)

TLE

AtualizadoSource: Space-Track

Época: Sep 14, 2026, 15:16 UTC

1 43643U 18077B   26257.63670623  .00000154  00000-0  39024-4 0  9990
2 43643  98.1436 285.0512 0004757 308.3355  51.7419 14.63265319422911

Acompanhe YAOGAN-32 B em tempo real com AllMySat

Download on the App Store